Weather in Lepley

Russia / Republic of Mordovia     54°18′35″N   42°51′22″E
temp.,
°C
wind,
m/s
gust,
m/s
humid.,
%
clouds,
%
prec.,
mm/h
press.,
hPa
HPBL,
m
28 september, tue
tue2800:00+5ne4792100 0.3 1021801
03:00+5ne3796100 0.3 1022756
06:00+5ne4888100 0.1 1024901
09:00+5ne4983100 0.1 1026780
12:00+7ene4768100 0.0 10271182
15:00+10ne474912 0.0 10281529
18:00+5nne24666 0.0 103067
21:00+3nne27764 0.0 1031142
29 september, wed
wed2900:00+2nne228195 0.0 103231
03:00+2n2480100 0.0 103299
06:00+1n258431 0.0 103399
09:00+6nne25625 0.0 1033424
12:00+10nne24466 0.0 10331228
15:00+11nne344352 0.0 10321463
18:00+6n226524 0.0 103216
21:00+4nne227454 0.0 103324
30 september, thu
thu3000:00+3nne117756 0.0 103310
03:00+2n11825 0.0 103410
06:00+2n11875 0.0 103411
09:00+7nnw126697 0.0 1035245
12:00+10n1259100 0.0 1035557
15:00+11nnw235760 0.0 10341009
18:00+7nw228357 0.0 103410
21:00+6nnw119321 0.0 103410
1 october, fri
fri100:00+5w119412 0.0 103413
03:00+5w229517 0.0 103519
06:00+5wnw229511 0.0 103541
09:00+10nw247935 0.0 1034294
12:00+14nw346560 0.0 1034887
15:00+14nw3465100 0.0 1033922
18:00+12wnw2377100 0.0 103374
21:00+11nw2277100 0.0 103450
2 october, sat
sat200:00+11nw2378100 0.0 103483
03:00+10nw2483100 0.0 1034119
06:00+10nw2483100 0.0 1034130
09:00+11nw2375100 0.0 1034248
12:00+15w125958 0.0 1034803
15:00+15wsw2256100 0.0 10331270
18:00+13sw2266100 0.0 103329
21:00+12sw1170100 0.0 103428